User: anonymous
Location: Niverville
(49.6028°N, 97.0419°W)
Time: 08:50:41
(UTC-05:00)
Language:

Cosmos 1154 Rocket - Orbit

View from above orbital plane
View from above orbital plane
View from above satellite
View from above satellite

Ground track
Ground track

The orbit data is extracted from the following two-line orbital elements,

1 11683U 80008B   14262.09346542  .00272360  29003-4  57584-3 0  4932
2 11683 081.1579 269.3439 0005226 108.0014 252.1829 15.98725634907192
Epoch (UTC): 19 September 2014 02:14:35
Eccentricity: 0.0005226
inclination: 81.1579°
perigee height: 274 km
apogee height: 281 km
right ascension of ascending node: 269.3439°
argument of perigee: 108.0014°
revolutions per day: 15.98725634
mean anomaly at epoch: 252.1829°
orbit number at epoch: 90719

The dashed part of the orbit path shows where the satellite is in the earth's shadow,  

DLR